Year,Month,Day,Hour,Minute,Value (Times are PST for temperature in C)
2017,09,04,00,00,16.40
2017,09,04,00,01,16.40
2017,09,04,00,02,16.40
2017,09,04,00,03,16.40
2017,09,04,00,04,16.30
2017,09,04,00,05,16.30
2017,09,04,00,06,16.30
2017,09,04,00,07,16.30
2017,09,04,00,08,16.30
2017,09,04,00,09,16.30
2017,09,04,00,10,16.30
2017,09,04,00,11,16.30
2017,09,04,00,12,16.30
2017,09,04,00,13,16.20
2017,09,04,00,14,16.20
2017,09,04,00,15,16.20
2017,09,04,00,16,16.20
2017,09,04,00,17,16.20
2017,09,04,00,18,16.20
2017,09,04,00,19,16.20
2017,09,04,00,20,16.20
2017,09,04,00,21,16.20
2017,09,04,00,22,16.20
2017,09,04,00,23,16.20
2017,09,04,00,24,16.20
2017,09,04,00,25,16.20
2017,09,04,00,26,16.20
2017,09,04,00,27,16.20
2017,09,04,00,28,16.20
2017,09,04,00,29,16.20
2017,09,04,00,30,16.20
2017,09,04,00,31,16.20
2017,09,04,00,32,16.10
2017,09,04,00,33,16.10
2017,09,04,00,34,16.10
2017,09,04,00,35,16.10
2017,09,04,00,36,16.10
2017,09,04,00,37,16.10
2017,09,04,00,38,16.10
2017,09,04,00,39,16.10
2017,09,04,00,40,16.00
2017,09,04,00,41,16.00
2017,09,04,00,42,16.00
2017,09,04,00,43,16.00
2017,09,04,00,44,16.00
2017,09,04,00,45,16.00
2017,09,04,00,46,16.00
2017,09,04,00,47,16.00
2017,09,04,00,48,15.90
2017,09,04,00,49,15.90
2017,09,04,00,50,15.90
2017,09,04,00,51,15.90
2017,09,04,00,52,15.80
2017,09,04,00,53,15.80
2017,09,04,00,54,15.80
2017,09,04,00,55,15.80
2017,09,04,00,56,15.80
2017,09,04,00,57,15.80
2017,09,04,00,58,15.80
2017,09,04,00,59,15.80
2017,09,04,01,00,15.70
2017,09,04,01,01,15.80
2017,09,04,01,02,15.80
2017,09,04,01,03,15.80
2017,09,04,01,04,15.80
2017,09,04,01,05,15.80
2017,09,04,01,06,15.80
2017,09,04,01,07,15.80
2017,09,04,01,08,15.80
2017,09,04,01,09,15.80
2017,09,04,01,10,15.80
2017,09,04,01,11,15.80
2017,09,04,01,12,15.80
2017,09,04,01,13,15.80
2017,09,04,01,14,15.80
2017,09,04,01,15,15.80
2017,09,04,01,16,15.80
2017,09,04,01,17,15.70
2017,09,04,01,18,15.70
2017,09,04,01,19,15.70
2017,09,04,01,20,15.70
2017,09,04,01,21,15.70
2017,09,04,01,22,15.80
2017,09,04,01,23,15.80
2017,09,04,01,24,15.80
2017,09,04,01,25,15.80
2017,09,04,01,26,15.80
2017,09,04,01,27,15.80
2017,09,04,01,28,15.70
2017,09,04,01,29,15.70
2017,09,04,01,30,15.70
2017,09,04,01,31,15.70
2017,09,04,01,32,15.70
2017,09,04,01,33,15.70
2017,09,04,01,34,15.70
2017,09,04,01,35,15.70
2017,09,04,01,36,15.70
2017,09,04,01,37,15.70
2017,09,04,01,38,15.70
2017,09,04,01,39,15.70
2017,09,04,01,40,15.70
2017,09,04,01,41,15.70
2017,09,04,01,42,15.70
2017,09,04,01,43,15.70
2017,09,04,01,44,15.70
2017,09,04,01,45,15.70
2017,09,04,01,46,15.70
2017,09,04,01,47,15.70
2017,09,04,01,48,15.70
2017,09,04,01,49,15.70
2017,09,04,01,50,15.70
2017,09,04,01,51,15.70
2017,09,04,01,52,15.70
2017,09,04,01,53,15.70
2017,09,04,01,54,15.70
2017,09,04,01,55,15.70
2017,09,04,01,56,15.70
2017,09,04,01,57,15.70
2017,09,04,01,58,15.70
2017,09,04,01,59,15.70
2017,09,04,02,00,15.60
2017,09,04,02,01,15.60
2017,09,04,02,02,15.60
2017,09,04,02,03,15.60
2017,09,04,02,04,15.60
2017,09,04,02,05,15.50
2017,09,04,02,06,15.50
2017,09,04,02,07,15.50
2017,09,04,02,08,15.50
2017,09,04,02,09,15.50
2017,09,04,02,10,15.50
2017,09,04,02,11,15.50
2017,09,04,02,12,15.50
2017,09,04,02,13,15.60
2017,09,04,02,14,15.60
2017,09,04,02,15,15.60
2017,09,04,02,16,15.60
2017,09,04,02,17,15.60
2017,09,04,02,18,15.70
2017,09,04,02,19,15.70
2017,09,04,02,20,15.70
2017,09,04,02,21,15.70
2017,09,04,02,22,15.80
2017,09,04,02,23,15.90
2017,09,04,02,24,16.00
2017,09,04,02,25,16.10
2017,09,04,02,26,16.20
2017,09,04,02,27,16.30
2017,09,04,02,28,16.40
2017,09,04,02,29,16.40
2017,09,04,02,30,16.40
2017,09,04,02,31,16.40
2017,09,04,02,32,16.50
2017,09,04,02,33,16.50
2017,09,04,02,34,16.40
2017,09,04,02,35,16.40
2017,09,04,02,36,16.30
2017,09,04,02,37,16.30
2017,09,04,02,38,16.30
2017,09,04,02,39,16.30
2017,09,04,02,40,16.30
2017,09,04,02,41,16.30
2017,09,04,02,42,16.30
2017,09,04,02,43,16.30
2017,09,04,02,44,16.20
2017,09,04,02,45,16.20
2017,09,04,02,46,16.20
2017,09,04,02,47,16.20
2017,09,04,02,48,16.20
2017,09,04,02,49,16.20
2017,09,04,02,50,16.10
2017,09,04,02,51,16.10
2017,09,04,02,52,16.10
2017,09,04,02,53,16.10
2017,09,04,02,54,16.10
2017,09,04,02,55,16.10
2017,09,04,02,56,16.10
2017,09,04,02,57,16.10
2017,09,04,02,58,16.00
2017,09,04,02,59,16.00
2017,09,04,03,00,16.00
2017,09,04,03,01,16.00
2017,09,04,03,02,16.00
2017,09,04,03,03,16.00
2017,09,04,03,04,16.00
2017,09,04,03,05,16.00
2017,09,04,03,06,16.00
2017,09,04,03,07,16.00
2017,09,04,03,08,15.90
2017,09,04,03,09,15.90
2017,09,04,03,10,15.90
2017,09,04,03,11,15.90
2017,09,04,03,12,15.90
2017,09,04,03,13,15.90
2017,09,04,03,14,15.90
2017,09,04,03,15,15.90
2017,09,04,03,16,16.00
2017,09,04,03,17,16.00
2017,09,04,03,18,16.10
2017,09,04,03,19,16.10
2017,09,04,03,20,16.10
2017,09,04,03,21,16.10
2017,09,04,03,22,16.10
2017,09,04,03,23,16.20
2017,09,04,03,24,16.20
2017,09,04,03,25,16.20
2017,09,04,03,26,16.30
2017,09,04,03,27,16.30
2017,09,04,03,28,16.40
2017,09,04,03,29,16.40
2017,09,04,03,30,16.40
2017,09,04,03,31,16.40
2017,09,04,03,32,16.30
2017,09,04,03,33,16.30
2017,09,04,03,34,16.30
2017,09,04,03,35,16.30
2017,09,04,03,36,16.30
2017,09,04,03,37,16.30
2017,09,04,03,38,16.30
2017,09,04,03,39,16.30
2017,09,04,03,40,16.30
2017,09,04,03,41,16.30
2017,09,04,03,42,16.40
2017,09,04,03,43,16.40
2017,09,04,03,44,16.50
2017,09,04,03,45,16.60
2017,09,04,03,46,16.90
2017,09,04,03,47,17.30
2017,09,04,03,48,17.70
2017,09,04,03,49,18.00
2017,09,04,03,50,18.30
2017,09,04,03,51,18.60
2017,09,04,03,52,18.70
2017,09,04,03,53,18.70
2017,09,04,03,54,18.70
2017,09,04,03,55,18.80
2017,09,04,03,56,18.90
2017,09,04,03,57,19.10
2017,09,04,03,58,19.30
2017,09,04,03,59,19.60
2017,09,04,04,00,19.80
2017,09,04,04,01,20.10
2017,09,04,04,02,20.40
2017,09,04,04,03,20.50
2017,09,04,04,04,20.70
2017,09,04,04,05,20.80
2017,09,04,04,06,21.00
2017,09,04,04,07,21.10
2017,09,04,04,08,21.20
2017,09,04,04,09,21.30
2017,09,04,04,10,21.30
2017,09,04,04,11,21.30
2017,09,04,04,12,21.30
2017,09,04,04,13,21.30
2017,09,04,04,14,21.20
2017,09,04,04,15,21.10
2017,09,04,04,16,21.00
2017,09,04,04,17,20.90
2017,09,04,04,18,20.90
2017,09,04,04,19,20.70
2017,09,04,04,20,20.60
2017,09,04,04,21,20.40
2017,09,04,04,22,20.10
2017,09,04,04,23,20.10
2017,09,04,04,24,20.00
2017,09,04,04,25,19.90
2017,09,04,04,26,20.00
2017,09,04,04,27,20.00
2017,09,04,04,28,20.10
2017,09,04,04,29,20.00
2017,09,04,04,30,19.90
2017,09,04,04,31,19.90
2017,09,04,04,32,19.90
2017,09,04,04,33,19.80
2017,09,04,04,34,19.80
2017,09,04,04,35,19.70
2017,09,04,04,36,19.80
2017,09,04,04,37,19.80
2017,09,04,04,38,19.80
2017,09,04,04,39,19.70
2017,09,04,04,40,19.50
2017,09,04,04,41,19.40
2017,09,04,04,42,19.30
2017,09,04,04,43,19.10
2017,09,04,04,44,19.00
2017,09,04,04,45,18.90
2017,09,04,04,46,18.80
2017,09,04,04,47,18.70
2017,09,04,04,48,18.60
2017,09,04,04,49,18.50
2017,09,04,04,50,18.40
2017,09,04,04,51,18.30
2017,09,04,04,52,18.20
2017,09,04,04,53,18.10
2017,09,04,04,54,18.10
2017,09,04,04,55,18.00
2017,09,04,04,56,17.90
2017,09,04,04,57,17.90
2017,09,04,04,58,17.80
2017,09,04,04,59,17.70
2017,09,04,05,00,17.60
2017,09,04,05,01,17.60
2017,09,04,05,02,17.50
2017,09,04,05,03,17.40
2017,09,04,05,04,17.40
2017,09,04,05,05,17.30
2017,09,04,05,06,17.20
2017,09,04,05,07,17.20
2017,09,04,05,08,17.10
2017,09,04,05,09,17.10
2017,09,04,05,10,17.00
2017,09,04,05,11,16.90
2017,09,04,05,12,16.90
2017,09,04,05,13,16.80
2017,09,04,05,14,16.80
2017,09,04,05,15,16.70
2017,09,04,05,16,16.60
2017,09,04,05,17,16.60
2017,09,04,05,18,16.50
2017,09,04,05,19,16.50
2017,09,04,05,20,16.40
2017,09,04,05,21,16.40
2017,09,04,05,22,16.40
2017,09,04,05,23,16.40
2017,09,04,05,24,16.30
2017,09,04,05,25,16.30
2017,09,04,05,26,16.30
2017,09,04,05,27,16.30
2017,09,04,05,28,16.30
2017,09,04,05,29,16.30
2017,09,04,05,30,16.20
2017,09,04,05,31,16.20
2017,09,04,05,32,16.20
2017,09,04,05,33,16.20
2017,09,04,05,34,16.10
2017,09,04,05,35,16.10
2017,09,04,05,36,16.00
2017,09,04,05,37,16.00
2017,09,04,05,38,15.90
2017,09,04,05,39,15.90
2017,09,04,05,40,15.80
2017,09,04,05,41,15.80
2017,09,04,05,42,15.80
2017,09,04,05,43,15.80
2017,09,04,05,44,15.80
2017,09,04,05,45,15.70
2017,09,04,05,46,15.70
2017,09,04,05,47,15.70
2017,09,04,05,48,15.60
2017,09,04,05,49,15.60
2017,09,04,05,50,15.60
2017,09,04,05,51,15.50
2017,09,04,05,52,15.50
2017,09,04,05,53,15.40
2017,09,04,05,54,15.40
2017,09,04,05,55,15.40
2017,09,04,05,56,15.30
2017,09,04,05,57,15.30
2017,09,04,05,58,15.30
2017,09,04,05,59,15.30
2017,09,04,06,00,15.30
2017,09,04,06,01,15.30
2017,09,04,06,02,15.30
2017,09,04,06,03,15.30
2017,09,04,06,04,15.20
2017,09,04,06,05,15.20
2017,09,04,06,06,15.20
2017,09,04,06,07,15.20
2017,09,04,06,08,15.20
2017,09,04,06,09,15.20
2017,09,04,06,10,15.20
2017,09,04,06,11,15.10
2017,09,04,06,12,15.10
2017,09,04,06,13,15.00
2017,09,04,06,14,15.00
2017,09,04,06,15,14.90
2017,09,04,06,16,14.90
2017,09,04,06,17,14.90
2017,09,04,06,18,14.90
2017,09,04,06,19,14.90
2017,09,04,06,20,14.90
2017,09,04,06,21,14.90
2017,09,04,06,22,14.90
2017,09,04,06,23,14.90
2017,09,04,06,24,14.90
2017,09,04,06,25,14.90
2017,09,04,06,26,14.90
2017,09,04,06,27,14.90
2017,09,04,06,28,14.90
2017,09,04,06,29,14.90
2017,09,04,06,30,14.90
2017,09,04,06,31,14.90
2017,09,04,06,32,14.90
2017,09,04,06,33,14.90
2017,09,04,06,34,14.90
2017,09,04,06,35,14.90
2017,09,04,06,36,14.80
2017,09,04,06,37,14.80
2017,09,04,06,38,14.80
2017,09,04,06,39,14.80
2017,09,04,06,40,14.70
2017,09,04,06,41,14.70
2017,09,04,06,42,14.70
2017,09,04,06,43,14.60
2017,09,04,06,44,14.60
2017,09,04,06,45,14.60
2017,09,04,06,46,14.60
2017,09,04,06,47,14.60
2017,09,04,06,48,14.60
2017,09,04,06,49,14.60
2017,09,04,06,50,14.60
2017,09,04,06,51,14.60
2017,09,04,06,52,14.60
2017,09,04,06,53,14.60
2017,09,04,06,54,14.60
2017,09,04,06,55,14.60
2017,09,04,06,56,14.60
2017,09,04,06,57,14.70
2017,09,04,06,58,14.70
2017,09,04,06,59,14.70
2017,09,04,07,00,14.70
2017,09,04,07,01,14.60
2017,09,04,07,02,14.60
2017,09,04,07,03,14.60
2017,09,04,07,04,14.60
2017,09,04,07,05,14.60
2017,09,04,07,06,14.60
2017,09,04,07,07,14.60
2017,09,04,07,08,14.60
2017,09,04,07,09,14.60
2017,09,04,07,10,14.60
2017,09,04,07,11,14.60
2017,09,04,07,12,14.60
2017,09,04,07,13,14.50
2017,09,04,07,14,14.50
2017,09,04,07,15,14.50
2017,09,04,07,16,14.50
2017,09,04,07,17,14.50
2017,09,04,07,18,14.50
2017,09,04,07,19,14.40
2017,09,04,07,20,14.40
2017,09,04,07,21,14.40
2017,09,04,07,22,14.40
2017,09,04,07,23,14.40
2017,09,04,07,24,14.40
2017,09,04,07,25,14.40
2017,09,04,07,26,14.30
2017,09,04,07,27,14.30
2017,09,04,07,28,14.30
2017,09,04,07,29,14.30
2017,09,04,07,30,14.30
2017,09,04,07,31,14.30
2017,09,04,07,32,14.30
2017,09,04,07,33,14.30
2017,09,04,07,34,14.30
2017,09,04,07,35,14.30
2017,09,04,07,36,14.30
2017,09,04,07,37,14.30
2017,09,04,07,38,14.30
2017,09,04,07,39,14.30
2017,09,04,07,40,14.30
2017,09,04,07,41,14.30
2017,09,04,07,42,14.30
2017,09,04,07,43,14.30
2017,09,04,07,44,14.30
2017,09,04,07,45,14.30
2017,09,04,07,46,14.30
2017,09,04,07,47,14.40
2017,09,04,07,48,14.40
2017,09,04,07,49,14.40
2017,09,04,07,50,14.40
2017,09,04,07,51,14.40
2017,09,04,07,52,14.40
2017,09,04,07,53,14.40
2017,09,04,07,54,14.40
2017,09,04,07,55,14.40
2017,09,04,07,56,14.40
2017,09,04,07,57,14.40
2017,09,04,07,58,14.50
2017,09,04,07,59,14.50
2017,09,04,08,00,14.50
2017,09,04,08,01,14.50
2017,09,04,08,02,14.50
2017,09,04,08,03,14.50
2017,09,04,08,04,14.40
2017,09,04,08,05,14.40
2017,09,04,08,06,14.40
2017,09,04,08,07,14.40
2017,09,04,08,08,14.40
2017,09,04,08,09,14.40
2017,09,04,08,10,14.40
2017,09,04,08,11,14.40
2017,09,04,08,12,14.40
2017,09,04,08,13,14.40
2017,09,04,08,14,14.40
2017,09,04,08,15,14.40
2017,09,04,08,16,14.40
2017,09,04,08,17,14.40
2017,09,04,08,18,14.40
2017,09,04,08,19,14.40
2017,09,04,08,20,14.40
2017,09,04,08,21,14.40
2017,09,04,08,22,14.40
2017,09,04,08,23,14.40
2017,09,04,08,24,14.40
2017,09,04,08,25,14.40
2017,09,04,08,26,14.40
2017,09,04,08,27,14.30
2017,09,04,08,28,14.30
2017,09,04,08,29,14.30
2017,09,04,08,30,14.30
2017,09,04,08,31,14.30
2017,09,04,08,32,14.30
2017,09,04,08,33,14.30
2017,09,04,08,34,14.40
2017,09,04,08,35,14.40
2017,09,04,08,36,14.40
2017,09,04,08,37,14.40
2017,09,04,08,38,14.50
2017,09,04,08,39,14.50
2017,09,04,08,40,14.50
2017,09,04,08,41,14.50
2017,09,04,08,42,14.50
2017,09,04,08,43,14.60
2017,09,04,08,44,14.60
2017,09,04,08,45,14.60
2017,09,04,08,46,14.60
2017,09,04,08,47,14.60
2017,09,04,08,48,14.60
2017,09,04,08,49,14.60
2017,09,04,08,50,14.60
2017,09,04,08,51,14.60
2017,09,04,08,52,14.60
2017,09,04,08,53,14.60
2017,09,04,08,54,14.60
2017,09,04,08,55,14.60
2017,09,04,08,56,14.60
2017,09,04,08,57,14.60
2017,09,04,08,58,14.60
2017,09,04,08,59,14.60
2017,09,04,09,00,14.60
2017,09,04,09,01,14.60
2017,09,04,09,02,14.60
2017,09,04,09,03,14.60
2017,09,04,09,04,14.60
2017,09,04,09,05,14.60
2017,09,04,09,06,14.60
2017,09,04,09,07,14.60
2017,09,04,09,08,14.60
2017,09,04,09,09,14.60
2017,09,04,09,10,14.60
2017,09,04,09,11,14.60
2017,09,04,09,12,14.60
2017,09,04,09,13,14.60
2017,09,04,09,14,14.60
2017,09,04,09,15,14.60
2017,09,04,09,16,14.60
2017,09,04,09,17,14.60
2017,09,04,09,18,14.60
2017,09,04,09,19,14.60
2017,09,04,09,20,14.60
2017,09,04,09,21,14.60
2017,09,04,09,22,14.60
2017,09,04,09,23,14.60
2017,09,04,09,24,14.60
2017,09,04,09,25,14.60
2017,09,04,09,26,14.60
2017,09,04,09,27,14.60
2017,09,04,09,28,14.70
2017,09,04,09,29,14.70
2017,09,04,09,30,14.70
2017,09,04,09,31,14.70
2017,09,04,09,32,14.70
2017,09,04,09,33,14.80
2017,09,04,09,34,14.80
2017,09,04,09,35,14.80
2017,09,04,09,36,14.90
2017,09,04,09,37,14.90
2017,09,04,09,38,15.00
2017,09,04,09,39,15.00
2017,09,04,09,40,15.00
2017,09,04,09,41,15.00
2017,09,04,09,42,15.10
2017,09,04,09,43,15.10
2017,09,04,09,44,15.10
2017,09,04,09,45,15.20
2017,09,04,09,46,15.20
2017,09,04,09,47,15.20
2017,09,04,09,48,15.30
2017,09,04,09,49,15.30
2017,09,04,09,50,15.30
2017,09,04,09,51,15.40
2017,09,04,09,52,15.40
2017,09,04,09,53,15.40
2017,09,04,09,54,15.40
2017,09,04,09,55,15.40
2017,09,04,09,56,15.50
2017,09,04,09,57,15.50
2017,09,04,09,58,15.50
2017,09,04,09,59,15.60
2017,09,04,10,00,15.60
2017,09,04,10,01,15.70
2017,09,04,10,02,15.70
2017,09,04,10,03,15.80
2017,09,04,10,04,15.90
2017,09,04,10,05,15.90
2017,09,04,10,06,16.00
2017,09,04,10,07,16.00
2017,09,04,10,08,16.10
2017,09,04,10,09,16.20
2017,09,04,10,10,16.20
2017,09,04,10,11,16.30
2017,09,04,10,12,16.40
2017,09,04,10,13,16.50
2017,09,04,10,14,16.60
2017,09,04,10,15,16.60
2017,09,04,10,16,16.80
2017,09,04,10,17,16.80
2017,09,04,10,18,17.00
2017,09,04,10,19,17.10
2017,09,04,10,20,17.30
2017,09,04,10,21,17.40
2017,09,04,10,22,17.60
2017,09,04,10,23,17.70
2017,09,04,10,24,17.90
2017,09,04,10,25,18.10
2017,09,04,10,26,18.20
2017,09,04,10,27,18.40
2017,09,04,10,28,18.50
2017,09,04,10,29,18.60
2017,09,04,10,30,18.90
2017,09,04,10,31,19.00
2017,09,04,10,32,19.20
2017,09,04,10,33,19.40
2017,09,04,10,34,19.50
2017,09,04,10,35,19.70
2017,09,04,10,36,19.80
2017,09,04,10,37,19.90
2017,09,04,10,38,20.10
2017,09,04,10,39,20.20
2017,09,04,10,40,20.30
2017,09,04,10,41,20.50
2017,09,04,10,42,20.70
2017,09,04,10,43,20.70
2017,09,04,10,44,20.80
2017,09,04,10,45,20.90
2017,09,04,10,46,21.00
2017,09,04,10,47,21.10
2017,09,04,10,48,21.20
2017,09,04,10,49,21.30
2017,09,04,10,50,21.40
2017,09,04,10,51,21.60
2017,09,04,10,52,21.70
2017,09,04,10,53,21.80
2017,09,04,10,54,21.90
2017,09,04,10,55,22.00
2017,09,04,10,56,22.10
2017,09,04,10,57,22.30
2017,09,04,10,58,22.40
2017,09,04,10,59,22.50
2017,09,04,11,00,22.60
2017,09,04,11,01,22.70
2017,09,04,11,02,22.80
2017,09,04,11,03,23.00
2017,09,04,11,04,23.10
2017,09,04,11,05,23.20
2017,09,04,11,06,23.30
2017,09,04,11,07,23.30
2017,09,04,11,08,23.40
2017,09,04,11,09,23.50
2017,09,04,11,10,23.60
2017,09,04,11,11,23.70
2017,09,04,11,12,23.80
2017,09,04,11,13,23.90
2017,09,04,11,14,23.90
2017,09,04,11,15,24.00
2017,09,04,11,16,24.10
2017,09,04,11,17,24.10
2017,09,04,11,18,24.20
2017,09,04,11,19,24.30
2017,09,04,11,20,24.40
2017,09,04,11,21,24.50
2017,09,04,11,22,24.60
2017,09,04,11,23,24.70
2017,09,04,11,24,24.90
2017,09,04,11,25,25.00
2017,09,04,11,26,25.10
2017,09,04,11,27,25.00
2017,09,04,11,28,25.00
2017,09,04,11,29,24.90
2017,09,04,11,30,24.80
2017,09,04,11,31,24.80
2017,09,04,11,32,24.70
2017,09,04,11,33,24.70
2017,09,04,11,34,24.70
2017,09,04,11,35,24.70
2017,09,04,11,36,24.80
2017,09,04,11,37,24.80
2017,09,04,11,38,24.80
2017,09,04,11,39,24.90
2017,09,04,11,40,24.90
2017,09,04,11,41,24.90
2017,09,04,11,42,24.90
2017,09,04,11,43,24.90
2017,09,04,11,44,24.90
2017,09,04,11,45,24.90
2017,09,04,11,46,24.90
2017,09,04,11,47,24.80
2017,09,04,11,48,24.90
2017,09,04,11,49,24.90
2017,09,04,11,50,24.80
2017,09,04,11,51,24.80
2017,09,04,11,52,24.90
2017,09,04,11,53,24.90
2017,09,04,11,54,25.00
2017,09,04,11,55,25.10
2017,09,04,11,56,25.10
2017,09,04,11,57,25.20
2017,09,04,11,58,25.30
2017,09,04,11,59,25.30
2017,09,04,12,00,25.40
2017,09,04,12,01,25.40
2017,09,04,12,02,25.50
2017,09,04,12,03,25.60
2017,09,04,12,04,25.60
2017,09,04,12,05,25.70
2017,09,04,12,06,25.80
2017,09,04,12,07,25.90
2017,09,04,12,08,25.90
2017,09,04,12,09,26.00
2017,09,04,12,10,26.10
2017,09,04,12,11,26.20
2017,09,04,12,12,26.20
2017,09,04,12,13,26.30
2017,09,04,12,14,26.30
2017,09,04,12,15,26.30
2017,09,04,12,16,26.30
2017,09,04,12,17,26.30
2017,09,04,12,18,26.30
2017,09,04,12,19,26.20
2017,09,04,12,20,26.20
2017,09,04,12,21,26.10
2017,09,04,12,22,26.00
2017,09,04,12,23,25.90
2017,09,04,12,24,25.90
2017,09,04,12,25,25.80
2017,09,04,12,26,25.80
2017,09,04,12,27,25.80
2017,09,04,12,28,25.80
2017,09,04,12,29,25.80
2017,09,04,12,30,25.80
2017,09,04,12,31,25.90
2017,09,04,12,32,26.00
2017,09,04,12,33,26.00
2017,09,04,12,34,26.10
2017,09,04,12,35,26.10
2017,09,04,12,36,26.20
2017,09,04,12,37,26.20
2017,09,04,12,38,26.30
2017,09,04,12,39,26.40
2017,09,04,12,40,26.50
2017,09,04,12,41,26.60
2017,09,04,12,42,26.70
2017,09,04,12,43,26.80
2017,09,04,12,44,26.90
2017,09,04,12,45,26.90
2017,09,04,12,46,27.00
2017,09,04,12,47,27.10
2017,09,04,12,48,27.20
2017,09,04,12,49,27.30
2017,09,04,12,50,27.30
2017,09,04,12,51,27.40
2017,09,04,12,52,27.50
2017,09,04,12,53,27.60
2017,09,04,12,54,27.70
2017,09,04,12,55,27.70
2017,09,04,12,56,27.80
2017,09,04,12,57,27.80
2017,09,04,12,58,27.80
2017,09,04,12,59,27.80
2017,09,04,13,00,27.80
2017,09,04,13,01,27.90
2017,09,04,13,02,27.90
2017,09,04,13,03,27.90
2017,09,04,13,04,27.90
2017,09,04,13,05,28.00
2017,09,04,13,06,28.00
2017,09,04,13,07,28.10
2017,09,04,13,08,28.10
2017,09,04,13,09,28.10
2017,09,04,13,10,28.20
2017,09,04,13,11,28.30
2017,09,04,13,12,28.30
2017,09,04,13,13,28.50
2017,09,04,13,14,28.60
2017,09,04,13,15,28.70
2017,09,04,13,16,28.70
2017,09,04,13,17,28.70
2017,09,04,13,18,28.70
2017,09,04,13,19,28.80
2017,09,04,13,20,28.80
2017,09,04,13,21,28.80
2017,09,04,13,22,28.80
2017,09,04,13,23,28.80
2017,09,04,13,24,28.90
2017,09,04,13,25,28.90
2017,09,04,13,26,28.90
2017,09,04,13,27,29.00
2017,09,04,13,28,29.00
2017,09,04,13,29,29.00
2017,09,04,13,30,29.10
2017,09,04,13,31,29.10
2017,09,04,13,32,29.10
2017,09,04,13,33,29.10
2017,09,04,13,34,29.10
2017,09,04,13,35,29.10
2017,09,04,13,36,29.10
2017,09,04,13,37,29.20
2017,09,04,13,38,29.20
2017,09,04,13,39,29.20
2017,09,04,13,40,29.20
2017,09,04,13,41,29.20
2017,09,04,13,42,29.30
2017,09,04,13,43,29.30
2017,09,04,13,44,29.30
2017,09,04,13,45,29.40
2017,09,04,13,46,29.40
2017,09,04,13,47,29.40
2017,09,04,13,48,29.50
2017,09,04,13,49,29.60
2017,09,04,13,50,29.60
2017,09,04,13,51,29.70
2017,09,04,13,52,29.80
2017,09,04,13,53,29.90
2017,09,04,13,54,30.00
2017,09,04,13,55,30.10
2017,09,04,13,56,30.20
2017,09,04,13,57,30.30
2017,09,04,13,58,30.50
2017,09,04,13,59,30.50
2017,09,04,14,00,30.60
2017,09,04,14,01,30.60
2017,09,04,14,02,30.60
2017,09,04,14,03,30.60
2017,09,04,14,04,30.60
2017,09,04,14,05,30.60
2017,09,04,14,06,30.60
2017,09,04,14,07,30.60
2017,09,04,14,08,30.60
2017,09,04,14,09,30.70
2017,09,04,14,10,30.70
2017,09,04,14,11,30.70
2017,09,04,14,12,30.70
2017,09,04,14,13,30.70
2017,09,04,14,14,30.70
2017,09,04,14,15,30.60
2017,09,04,14,16,30.60
2017,09,04,14,17,30.60
2017,09,04,14,18,30.50
2017,09,04,14,19,30.50
2017,09,04,14,20,30.50
2017,09,04,14,21,30.50
2017,09,04,14,22,30.50
2017,09,04,14,23,30.50
2017,09,04,14,24,30.60
2017,09,04,14,25,30.60
2017,09,04,14,26,30.60
2017,09,04,14,27,30.60
2017,09,04,14,28,30.50
2017,09,04,14,29,30.50
2017,09,04,14,30,30.40
2017,09,04,14,31,30.40
2017,09,04,14,32,30.50
2017,09,04,14,33,30.50
2017,09,04,14,34,30.60
2017,09,04,14,35,30.60
2017,09,04,14,36,30.70
2017,09,04,14,37,30.70
2017,09,04,14,38,30.80
2017,09,04,14,39,30.80
2017,09,04,14,40,30.80
2017,09,04,14,41,30.80
2017,09,04,14,42,30.90
2017,09,04,14,43,30.90
2017,09,04,14,44,31.00
2017,09,04,14,45,31.10
2017,09,04,14,46,31.10
2017,09,04,14,47,31.20
2017,09,04,14,48,31.20
2017,09,04,14,49,31.20
2017,09,04,14,50,31.30
2017,09,04,14,51,31.30
2017,09,04,14,52,31.30
2017,09,04,14,53,31.30
2017,09,04,14,54,31.30
2017,09,04,14,55,31.30
2017,09,04,14,56,31.30
2017,09,04,14,57,31.30
2017,09,04,14,58,31.40
2017,09,04,14,59,31.40
2017,09,04,15,00,31.40
2017,09,04,15,01,31.50
2017,09,04,15,02,31.50
2017,09,04,15,03,31.60
2017,09,04,15,04,31.50
2017,09,04,15,05,31.50
2017,09,04,15,06,31.50
2017,09,04,15,07,31.50
2017,09,04,15,08,31.40
2017,09,04,15,09,31.40
2017,09,04,15,10,31.40
2017,09,04,15,11,31.40
2017,09,04,15,12,31.40
2017,09,04,15,13,31.40
2017,09,04,15,14,31.40
2017,09,04,15,15,31.40
2017,09,04,15,16,31.30
2017,09,04,15,17,31.30
2017,09,04,15,18,31.30
2017,09,04,15,19,31.30
2017,09,04,15,20,31.30
2017,09,04,15,21,31.20
2017,09,04,15,22,31.20
2017,09,04,15,23,31.20
2017,09,04,15,24,31.10
2017,09,04,15,25,31.10
2017,09,04,15,26,31.10
2017,09,04,15,27,31.00
2017,09,04,15,28,30.90
2017,09,04,15,29,30.90
2017,09,04,15,30,30.80
2017,09,04,15,31,30.70
2017,09,04,15,32,30.60
2017,09,04,15,33,30.60
2017,09,04,15,34,30.60
2017,09,04,15,35,30.50
2017,09,04,15,36,30.50
2017,09,04,15,37,30.50
2017,09,04,15,38,30.40
2017,09,04,15,39,30.40
2017,09,04,15,40,30.40
2017,09,04,15,41,30.40
2017,09,04,15,42,30.40
2017,09,04,15,43,30.40
2017,09,04,15,44,30.40
2017,09,04,15,45,30.40
2017,09,04,15,46,30.40
2017,09,04,15,47,30.40
2017,09,04,15,48,30.50
2017,09,04,15,49,30.50
2017,09,04,15,50,30.60
2017,09,04,15,51,30.50
2017,09,04,15,52,30.50
2017,09,04,15,53,30.50
2017,09,04,15,54,30.50
2017,09,04,15,55,30.50
2017,09,04,15,56,30.50
2017,09,04,15,57,30.60
2017,09,04,15,58,30.60
2017,09,04,15,59,30.60
2017,09,04,16,00,30.60
2017,09,04,16,01,30.60
2017,09,04,16,02,30.70
2017,09,04,16,03,30.70
2017,09,04,16,04,30.70
2017,09,04,16,05,30.80
2017,09,04,16,06,30.80
2017,09,04,16,07,30.80
2017,09,04,16,08,30.80
2017,09,04,16,09,30.80
2017,09,04,16,10,30.80
2017,09,04,16,11,30.80
2017,09,04,16,12,30.80
2017,09,04,16,13,30.80
2017,09,04,16,14,30.80
2017,09,04,16,15,30.80
2017,09,04,16,16,30.80
2017,09,04,16,17,30.80
2017,09,04,16,18,30.80
2017,09,04,16,19,30.90
2017,09,04,16,20,30.90
2017,09,04,16,21,31.00
2017,09,04,16,22,31.00
2017,09,04,16,23,31.00
2017,09,04,16,24,31.00
2017,09,04,16,25,31.10
2017,09,04,16,26,31.10
2017,09,04,16,27,31.10
2017,09,04,16,28,31.00
2017,09,04,16,29,31.00
2017,09,04,16,30,31.00
2017,09,04,16,31,31.00
2017,09,04,16,32,31.00
2017,09,04,16,33,31.00
2017,09,04,16,34,31.00
2017,09,04,16,35,31.00
2017,09,04,16,36,31.00
2017,09,04,16,37,31.00
2017,09,04,16,38,31.10
2017,09,04,16,39,31.10
2017,09,04,16,40,31.10
2017,09,04,16,41,31.20
2017,09,04,16,42,31.20
2017,09,04,16,43,31.20
2017,09,04,16,44,31.20
2017,09,04,16,45,31.30
2017,09,04,16,46,31.30
2017,09,04,16,47,31.30
2017,09,04,16,48,31.40
2017,09,04,16,49,31.40
2017,09,04,16,50,31.40
2017,09,04,16,51,31.40
2017,09,04,16,52,31.30
2017,09,04,16,53,31.30
2017,09,04,16,54,31.30
2017,09,04,16,55,31.40
2017,09,04,16,56,31.40
2017,09,04,16,57,31.40
2017,09,04,16,58,31.50
2017,09,04,16,59,31.50
2017,09,04,17,00,31.50
2017,09,04,17,01,31.50
2017,09,04,17,02,31.50
2017,09,04,17,03,31.50
2017,09,04,17,04,31.50
2017,09,04,17,05,31.40
2017,09,04,17,06,31.40
2017,09,04,17,07,31.40
2017,09,04,17,08,31.30
2017,09,04,17,09,31.30
2017,09,04,17,10,31.20
2017,09,04,17,11,31.10
2017,09,04,17,12,31.10
2017,09,04,17,13,31.00
2017,09,04,17,14,31.00
2017,09,04,17,15,30.90
2017,09,04,17,16,30.90
2017,09,04,17,17,30.90
2017,09,04,17,18,30.80
2017,09,04,17,19,30.80